Temp
11 11 12 12 13 13 13 13 13 11 10 10 9 9 9 9 8 9 9 8 8 8 8 8 8 8 9 8 8 12 11 12 11 11 10 9 9 9 9 10 11 12 14 15 14 14 15
10 10 10 11 12 12 13 13 13 12 10 10 9 9 9 9 8 8 8 8 8 8 8 8 8 8 8 7 11 11 11 11 11 10 10 10 9 10 9 10 11 13 14 15 15 14 16
9 9 9 10 10 11 12 13 13 13 11 10 9 9 9 8 8 8 8 8 8 8 8 8 8 8 8 8 11 11 11 11 10 10 10 9 9 9 10 10 12 13 13 15 13 14 15
9 9 9 9 9 9 11 12 13 13 11 10 9 9 8 8 8 8 8 8 7 7 7 8 8 8 7 11 11 11 11 10 10 10 9 8 9 9 9 10 11 12 13 13 15 13 14
9 9 9 9 9 9 10 11 12 13 11 10 9 9 8 8 8 8 7 7 7 8 8 8 8 7 7 11 11 11 11 10 10 9 9 8 8 8 9 9 11 12 12 13 14 13 13
8 8 8 8 8 9 9 10 11 13 12 10 9 9 8 8 8 8 7 8 8 8 8 8 8 7 9 10 11 11 11 10 9 9 9 8 8 7 7 10 11 13 12 13 15 14 13
8 8 8 8 8 8 8 9 10 12 12 10 9 8 8 8 8 7 7 8 7 8 8 9 9 9 10 11 10 10 10 9 10 9 8 8 8 9 8 10 11 13 13 12 13 14 13
8 8 8 8 7 8 8 8 10 10 11 10 9 8 8 7 7 7 8 7 9 9 9 9 9 9 10 10 9 10 9 9 9 7 7 8 9 9 10 9 10 13 13 14 14 14 14
8 8 7 7 7 7 8 8 9 10 11 9 8 7 7 7 7 7 8 8 9 9 8 10 10 10 10 9 8 9 9 8 8 7 8 10 11 10 9 9 11 13 14 15 14 14 14
7 7 7 7 7 6 7 7 8 9 11 9 8 7 7 7 7 7 7 9 9 9 2 8 10 10 10 9 8 9 8 7 7 8 9 11 11 10 9 11 13 14 15 15 14 13 14
7 7 7 7 7 6 6 7 7 8 10 9 8 7 7 7 8 8 9 9 9 9 4 10 10 11 9 9 9 9 8 8 9 10 10 10 11 10 11 12 14 14 15 14 14 13 13
7 7 7 6 6 6 6 6 7 9 9 8 7 7 7 6 8 9 9 8 9 3 5 6 10 10 10 10 10 9 9 8 9 11 11 10 11 11 11 12 14 14 14 13 12 13 13
6 6 6 6 6 5 6 6 8 8 9 7 7 6 7 7 7 8 9 7 5 4 9 9 9 10 10 10 10 9 10 10 10 11 10 11 10 11 11 13 14 14 14 13 13 12 14
6 6 5 5 5 5 6 6 8 8 8 7 6 6 7 8 9 8 9 5 4 8 6 10 9 9 9 11 11 11 11 10 11 10 8 10 9 11 12 12 13 12 13 12 13 12 12
6 6 5 5 4 5 5 6 7 9 7 6 6 6 7 7 8 9 5 3 5 7 8 8 9 9 10 11 11 11 10 10 10 10 11 9 10 12 12 12 12 13 12 13 11 11 11
6 6 6 5 5 5 6 8 9 8 6 6 7 6 6 7 8 8 4 7 6 9 9 10 10 10 11 11 11 11 10 11 11 11 11 11 10 11 12 13 13 13 14 13 11 13 14
6 7 7 6 5 5 8 9 8 6 6 7 8 6 6 7 8 6 4 6 8 10 11 10 10 10 10 11 11 11 10 11 11 11 11 11 10 10 12 11 12 13 13 11 11 10 12
6 7 7 6 5 7 8 9 7 6 7 8 7 6 6 7 6 5 6 8 11 11 11 11 11 12 11 11 12 11 11 11 11 12 12 11 10 7 11 12 12 13 13 11 9 12 7
6 7 6 6 6 7 8 8 7 7 8 8 7 6 6 6 5 6 7 10 11 11 11 11 11 12 13 12 11 11 11 11 11 11 12 12 8 6 9 10 12 13 13 11 10 8 8
6 6 6 6 7 8 9 7 6 7 8 9 6 7 6 6 7 7 9 10 10 11 11 12 13 13 13 13 11 11 11 12 12 12 13 11 9 10 8 11 10 12 12 12 10 7 11
6 6 6 6 7 9 8 6 7 7 8 9 6 5 7 7 7 7 8 10 10 11 12 12 13 13 13 12 12 11 11 11 12 12 12 10 9 7 11 12 10 12 12 11 8 12 10
6 6 6 6 7 8 7 6 7 8 7 8 6 5 4 5 6 6 7 9 10 11 11 12 11 12 12 12 12 11 11 11 12 11 11 9 7 8 9 10 11 12 11 11 11 11 11
6 5 6 6 7 7 6 6 7 7 8 7 6 6 6 6 5 6 7 9 11 10 10 11 11 10 11 11 10 10 10 10 12 11 10 10 9 8 8 9 10 10 13 11 12 11 12
6 6 6 7 8 8 6 6 7 7 9 9 7 6 6 6 6 7 9 11 10 11 10 9 10 11 10 9 10 10 9 9 10 9 10 10 9 8 7 8 8 11 11 12 11 12 11
6 6 6 7 8 8 7 6 7 7 8 9 8 7 6 5 6 9 9 8 8 8 9 9 9 8 8 10 9 10 8 11 11 8 9 9 8 8 8 7 9 12 13 13 12 11 12
6 6 6 7 7 7 7 6 6 7 8 9 7 7 5 7 5 5 7 8 7 7 7 8 9 8 9 8 9 10 8 10 10 10 9 8 7 9 7 8 10 11 12 12 11 9 11
5 6 6 7 7 7 6 6 6 6 7 9 7 7 6 3 2 4 6 7 6 6 6 8 9 9 9 7 9 8 9 9 9 9 9 8 7 8 8 9 9 10 11 12 11 10 8
5 6 6 6 7 7 6 6 6 6 6 8 7 7 6 2 2 2 3 6 5 6 7 6 8 8 7 9 8 8 8 8 9 9 9 9 7 7 7 8 7 10 11 11 8 8 8
6 6 8 8 7 7 6 6 6 6 6 8 6 6 6 2 2 3 4 4 4 4 4 3 5 5 6 6 6 6 8 6 7 9 8 9 8 8 8 8 9 9 10 9 8 7 7
Height
829 824 820 818 813 811 809 804 802 799 799 801 801 800 800 797 798 797 798 796 794 793 792 792 792 791 791 791 786 782 782 781 781 781 782 783 783 784 783 778 777 774 769 765 769 770 770
828 822 817 814 810 807 803 801 797 794 793 793 796 797 796 794 794 794 795 794 792 791 790 791 791 791 791 793 780 780 780 780 780 780 779 779 778 778 779 777 775 766 768 768 768 774 766
825 821 816 810 807 802 800 795 793 788 789 789 790 793 793 792 791 792 793 792 790 789 789 789 789 790 790 786 779 779 779 778 777 777 777 775 775 776 775 775 770 768 770 768 769 771 765
821 817 814 808 803 799 795 792 788 782 783 784 787 789 789 789 789 789 791 790 787 787 787 788 788 790 788 778 778 778 777 777 777 776 775 775 775 776 775 773 769 771 772 769 763 773 774
817 812 809 804 800 794 791 787 783 780 779 779 782 784 786 786 786 786 788 787 786 786 786 787 789 789 786 778 776 776 776 776 775 775 774 775 777 775 776 777 764 767 768 762 763 769 775
814 807 804 800 796 792 788 783 779 773 772 773 777 779 782 784 783 783 786 785 784 785 786 786 788 793 781 777 775 774 774 774 773 773 773 773 770 775 779 768 756 755 764 763 759 765 774
809 805 800 797 792 788 783 779 774 771 764 768 772 777 778 781 780 781 784 784 788 788 785 783 782 780 776 775 772 772 773 772 771 773 771 771 766 764 766 761 759 750 757 768 770 766 777
804 800 796 792 788 784 778 773 769 766 759 763 767 772 775 778 779 779 781 782 780 781 782 779 778 777 775 774 773 771 771 773 770 774 773 770 763 761 760 762 759 752 756 764 769 771 771
799 794 791 787 781 776 773 767 764 761 754 757 762 768 772 775 777 779 779 779 779 779 783 778 775 774 775 774 775 771 771 772 772 772 768 760 755 757 761 764 757 749 750 752 763 771 777
793 789 785 781 777 772 768 764 760 758 751 753 757 764 769 774 777 776 777 777 780 780 809 782 776 775 775 773 774 770 772 774 774 767 761 753 754 756 765 754 746 749 745 750 761 774 775
787 782 777 774 770 766 762 759 756 751 746 746 751 760 766 770 770 773 775 777 779 781 830 774 775 773 771 773 773 770 770 768 763 757 760 757 753 760 758 749 744 748 743 750 758 777 787
779 775 770 766 762 758 755 752 750 746 744 741 747 757 763 769 769 771 774 777 781 814 817 789 774 771 773 769 769 768 767 768 762 754 753 758 755 753 755 749 743 746 757 770 780 781 793
770 766 761 757 754 750 746 743 739 738 739 739 744 756 759 764 766 769 774 778 802 818 780 780 776 772 771 771 766 767 765 761 763 758 766 763 767 758 759 753 752 757 763 780 789 792 785
761 757 752 746 745 740 736 732 726 728 730 735 744 754 759 762 765 769 774 790 815 778 787 773 775 775 776 767 763 763 760 767 762 765 779 772 786 769 766 766 767 772 766 775 781 793 791
751 747 742 737 733 729 724 720 717 716 724 734 743 753 759 762 766 769 778 807 789 778 771 776 775 778 774 767 766 763 766 770 769 767 769 785 777 771 768 767 770 768 772 775 788 797 800
741 737 733 728 722 716 708 702 704 708 720 731 734 753 760 763 766 770 785 776 779 764 765 767 774 775 771 768 767 765 771 769 768 765 766 771 784 780 770 769 770 771 770 780 791 787 784
733 728 724 719 713 702 696 697 699 709 719 730 731 753 761 763 767 773 787 780 766 759 758 765 769 775 772 766 766 768 775 769 768 765 765 769 781 787 776 779 776 770 773 779 787 800 793
726 720 715 709 699 691 685 687 693 708 715 728 735 751 760 763 771 774 776 766 754 757 758 758 760 762 767 765 765 771 772 773 768 765 766 770 782 805 781 777 776 776 778 788 809 798 828
722 714 704 695 685 677 674 682 692 703 710 721 737 751 762 763 774 772 766 755 753 758 760 760 759 759 757 762 771 773 773 769 768 768 769 769 793 819 801 791 781 779 779 787 795 805 814
719 713 704 692 679 671 675 682 692 701 710 719 732 751 762 763 762 763 757 757 758 755 758 757 755 754 756 761 767 772 774 770 768 769 767 770 788 789 806 787 789 783 781 780 792 822 800
713 707 698 687 674 668 673 685 694 703 712 719 729 745 744 754 759 759 758 755 757 757 755 755 755 755 758 764 767 773 774 772 769 770 770 776 791 801 782 780 787 783 781 785 807 786 797
710 705 697 685 669 673 680 688 699 707 716 718 729 740 747 754 756 762 760 757 756 756 756 756 759 759 761 765 766 772 774 775 771 773 773 782 803 800 796 787 784 781 783 784 787 785 786
712 705 696 693 688 687 691 698 704 713 720 721 728 731 736 752 759 762 760 757 754 756 759 756 760 765 767 769 770 771 772 773 771 775 781 783 794 802 806 798 789 797 776 781 780 781 778
713 710 704 696 692 697 704 708 712 719 723 724 727 728 736 753 753 753 751 749 755 755 760 763 762 763 770 769 770 772 776 778 779 783 781 785 792 801 816 803 819 783 780 777 778 775 778
715 711 705 699 690 698 705 713 717 723 727 727 728 728 735 753 752 749 751 757 761 763 765 767 769 771 770 772 783 785 792 779 782 789 786 786 794 805 808 816 801 775 774 775 775 777 772
714 711 708 705 705 704 709 716 721 726 730 730 730 730 732 742 758 759 757 757 766 770 773 772 772 771 772 780 784 787 797 788 790 787 789 792 795 796 817 810 800 784 775 775 777 792 775
714 710 709 706 705 708 713 718 724 729 732 734 735 734 735 754 765 761 760 760 763 769 777 774 773 773 774 785 788 797 790 787 792 792 794 800 804 807 807 807 798 784 780 776 785 794 784
712 708 708 708 708 710 714 721 726 731 735 738 741 739 739 757 767 765 764 763 765 766 772 776 775 777 783 783 788 793 794 791 791 789 792 794 808 807 813 810 813 784 780 782 794 786 785
708 703 700 702 708 709 715 721 727 732 737 741 744 743 743 749 769 768 768 768 767 768 772 780 780 780 781 787 792 794 789 798 797 793 790 790 792 795 798 796 787 785 784 787 789 790 786
Wind_Speed
27 25 26 31 31 35 35 31 34 27 18 16 15 11 12 9 10 9 10 10 10 11 9 5 4 7 2 1 6 2 5 6 5 4 5 4 6 6 10 4 7 12 6 19 19 10 4
31 29 30 31 30 30 33 35 30 32 20 16 15 13 12 10 9 8 10 10 9 9 7 3 3 5 1 3 2 3 6 6 4 3 6 5 6 9 4 5 11 6 15 10 20 16 2
31 31 33 33 33 34 36 33 32 31 22 17 14 14 11 10 8 7 9 8 10 8 7 4 3 3 1 9 4 7 3 3 4 2 4 2 6 6 7 4 12 17 5 10 17 17 2
29 31 34 35 36 38 37 35 36 27 27 18 15 13 11 8 6 7 7 9 6 6 6 5 2 2 5 5 7 6 4 4 3 3 2 6 2 3 3 7 4 10 6 11 15 16 9
31 32 33 34 36 38 37 38 38 27 29 18 15 13 12 8 6 5 8 5 5 3 3 3 2 3 6 6 6 6 5 4 3 3 3 6 4 4 6 8 8 7 5 12 6 19 7
32 32 34 35 37 36 38 38 38 35 31 21 16 15 11 9 5 4 6 3 1 3 2 3 3 2 5 2 6 8 4 4 7 2 3 3 3 4 1 9 9 12 4 6 7 10 16
36 36 35 36 38 38 38 39 39 35 29 20 16 14 10 9 4 3 4 3 3 1 1 4 4 3 5 6 7 0 2 6 3 3 2 3 3 6 5 4 3 13 5 10 4 11 10
37 38 38 38 36 40 37 41 38 36 30 21 18 14 11 8 4 4 6 2 2 1 1 7 6 4 6 1 3 1 8 1 2 2 2 3 2 7 7 2 3 12 9 12 14 16 6
37 40 40 39 40 40 38 38 33 39 30 24 19 15 12 8 8 7 6 4 2 1 2 3 4 3 2 1 3 3 3 5 3 3 4 3 6 9 5 3 8 4 13 8 14 7 5
39 40 39 39 39 38 39 41 36 36 31 25 19 16 14 12 8 10 3 6 3 2 4 5 1 2 2 2 3 2 2 3 2 1 4 3 7 9 5 7 8 4 4 17 19 4 3
37 39 41 40 38 40 41 36 38 41 30 28 22 19 16 17 14 8 5 9 6 4 5 2 3 2 3 3 4 2 2 3 5 4 4 2 8 6 6 3 1 3 14 14 13 7 3
38 39 40 37 38 37 40 37 39 40 29 30 23 22 20 12 8 9 12 11 5 5 3 4 2 2 2 2 2 3 3 3 4 3 10 5 1 4 4 3 7 9 18 13 6 3 1
37 38 37 38 35 37 35 40 34 33 33 29 24 22 24 13 8 17 15 4 4 4 2 2 0 3 4 3 4 2 2 2 3 3 6 7 6 5 4 8 11 14 5 3 2 1 3
38 37 37 31 37 38 41 45 46 47 37 30 27 23 18 8 19 19 8 4 4 2 4 1 3 5 2 3 2 3 2 5 6 6 4 5 5 9 9 3 4 3 1 3 4 4 2
38 36 33 31 41 45 49 47 51 33 38 33 31 22 13 15 20 17 4 3 7 6 6 7 3 1 3 2 2 4 3 3 4 5 4 3 4 5 7 4 3 3 5 0 5 2 4
36 33 32 36 40 48 58 40 23 45 41 41 25 12 7 16 17 7 4 4 2 3 5 4 5 3 1 1 2 4 5 3 3 2 2 2 5 4 4 3 5 2 3 1 2 3 1
34 33 34 38 41 52 24 16 47 44 45 33 24 4 8 15 13 3 3 5 5 4 3 5 5 4 4 2 1 2 4 4 4 5 4 3 4 3 2 4 3 4 3 5 4 3 3
32 35 36 40 45 41 34 20 52 49 50 27 6 4 11 15 3 2 3 5 3 3 1 2 4 3 5 3 3 3 2 2 5 2 3 1 4 3 1 3 1 0 3 3 4 2 2
29 34 40 43 49 51 29 59 54 56 47 15 4 4 4 2 3 2 3 3 2 3 3 3 3 4 2 4 4 2 2 4 5 5 2 1 2 3 6 5 5 3 2 4 4 3 2
27 31 35 43 47 37 35 54 56 59 36 7 4 4 2 1 1 3 3 4 4 3 3 3 3 2 3 4 5 3 2 1 3 3 4 3 3 4 5 3 3 2 0 1 4 3 2
27 31 36 40 46 13 56 54 58 54 28 2 3 3 4 6 7 4 1 5 5 4 1 3 2 3 4 3 3 3 2 1 3 5 3 3 3 3 2 1 2 1 2 4 4 4 4
25 29 35 40 44 45 48 50 54 46 19 4 4 4 3 2 6 6 1 6 5 3 3 3 5 3 4 4 4 5 5 1 1 4 3 3 1 2 4 6 1 2 4 4 4 4 6
22 28 32 31 16 27 38 45 52 35 12 4 2 3 4 4 5 6 5 6 7 6 5 3 7 5 5 4 4 4 3 2 2 4 2 3 3 2 2 4 4 3 2 3 2 2 3
19 24 27 29 17 27 30 35 40 28 9 3 2 4 3 2 4 5 7 4 8 3 6 3 3 5 3 4 4 4 7 7 7 6 2 3 3 2 1 4 2 5 3 4 5 4 5
18 21 21 24 13 32 32 33 29 26 5 5 4 2 3 3 2 3 6 6 7 5 5 4 4 1 4 5 4 4 4 3 3 5 5 2 3 3 2 1 5 1 1 1 2 5 3
18 20 19 16 6 27 33 31 27 26 8 7 13 6 4 5 1 3 5 4 5 4 3 3 3 1 4 3 3 3 4 4 2 1 3 4 5 3 1 2 3 4 2 2 2 4 3
19 19 16 11 5 27 28 28 27 19 16 5 8 11 6 4 3 3 3 4 3 4 4 2 2 2 3 2 2 2 3 3 3 5 4 2 3 3 2 2 6 4 4 0 1 4 7
22 20 14 7 15 23 27 24 21 20 20 1 6 10 3 3 3 4 4 3 2 2 4 3 3 2 2 2 3 3 2 4 2 3 4 5 5 3 2 2 6 3 2 0 3 4 4
26 26 16 18 17 27 28 26 18 21 18 9 4 15 15 6 3 9 16 14 6 1 4 3 2 2 3 4 1 2 1 1 3 2 1 1 4 4 6 4 2 2 3 3 2 4 5
Wind_Direction
326 328 324 314 319 300 297 299 269 259 252 256 261 270 276 292 299 297 309 301 317 308 311 287 321 334 354 308 251 200 276 293 287 232 230 192 217 215 239 206 219 242 251 209 244 320 253
329 329 324 321 322 322 310 296 294 259 246 246 253 261 266 286 292 295 308 293 319 304 317 277 309 330 25 277 193 243 308 305 265 322 290 269 218 214 260 245 200 208 226 249 222 257 230
326 329 325 326 318 319 319 318 295 260 244 246 242 251 260 275 280 291 307 310 313 287 295 294 299 320 268 244 262 290 296 282 281 310 241 200 270 197 157 287 244 244 231 219 197 235 269
327 326 324 325 322 319 316 316 310 273 244 238 240 244 250 268 274 298 294 305 300 288 275 273 258 269 252 283 293 245 298 267 262 286 216 199 308 265 210 315 188 181 251 206 193 209 247
323 326 323 322 323 319 316 309 306 282 248 231 232 236 252 254 266 301 295 288 301 297 264 199 206 183 269 302 254 265 290 267 229 270 232 182 170 207 152 239 187 165 194 207 176 182 254
324 324 323 320 319 318 315 313 306 284 248 225 223 226 242 244 254 282 281 281 255 278 164 167 250 282 268 275 279 278 281 323 239 200 253 217 213 152 215 202 184 174 181 141 210 170 178
323 323 322 319 318 317 315 313 311 309 238 215 212 226 227 236 241 196 241 138 60 309 157 200 229 243 266 304 294 51 1 332 224 241 248 215 240 203 223 176 280 152 162 153 140 129 170
320 319 319 319 319 314 313 315 310 311 231 207 206 213 219 223 201 189 178 165 219 152 192 234 254 244 273 276 288 262 346 302 213 282 253 221 212 209 168 208 305 175 162 168 146 159 117
313 315 314 314 313 315 312 310 306 302 222 202 195 202 205 202 174 185 184 196 176 77 112 246 225 245 264 66 295 289 21 10 261 260 224 204 147 149 134 272 248 176 158 142 131 138 95
310 310 309 309 309 312 309 308 295 306 218 195 186 193 191 179 157 157 188 189 187 121 68 300 304 268 143 140 285 221 120 195 183 282 232 95 136 132 174 238 176 116 153 119 124 111 85
306 306 306 306 304 303 307 304 305 299 215 188 179 186 183 177 144 158 173 159 150 75 60 265 325 158 138 290 314 49 182 213 304 103 232 6 134 132 186 7 200 124 113 106 90 73 139
302 301 299 300 300 298 300 299 299 295 211 181 171 176 171 184 161 143 146 143 108 46 263 355 331 11 335 273 215 294 227 233 284 18 74 63 297 15 357 333 103 97 88 66 65 73 266
298 297 295 293 297 299 297 299 292 280 195 174 165 173 170 168 164 150 150 88 47 118 315 283 29 10 338 285 310 289 336 44 46 50 19 34 4 345 31 51 50 106 102 93 72 94 233
301 297 300 298 303 300 298 302 303 293 177 163 162 162 164 165 151 151 139 60 92 177 193 117 75 326 303 336 282 327 10 35 29 53 58 44 15 3 343 61 110 37 132 106 132 173 171
301 297 302 306 310 300 298 293 293 183 163 156 152 147 150 146 153 158 86 89 206 204 164 145 55 37 308 320 307 28 53 41 38 38 103 115 44 322 29 35 25 331 37 44 113 36 73
303 302 308 303 302 299 296 290 265 163 157 155 131 127 119 147 154 135 80 237 230 179 126 101 141 205 306 282 33 25 17 349 5 35 198 130 77 346 339 52 329 65 146 328 32 130 184
304 307 306 304 302 302 319 291 163 158 155 147 118 112 150 151 146 70 184 221 231 194 155 129 167 150 218 223 53 73 354 347 10 339 51 108 83 284 354 17 94 354 27 44 79 68 138
309 307 310 309 306 317 318 282 160 157 151 149 112 100 162 155 121 176 188 194 193 140 183 115 115 149 169 166 54 81 95 325 322 297 56 2 107 75 110 293 275 63 121 115 112 220 72
313 312 315 316 322 325 316 157 156 157 153 134 96 98 147 161 151 220 266 193 127 128 175 152 148 214 178 142 98 91 50 306 327 33 79 86 25 66 359 358 348 30 22 96 89 58 204
314 316 319 323 328 325 166 158 157 158 155 123 114 121 123 218 200 159 156 164 126 147 156 190 130 126 99 66 42 126 105 283 350 28 48 92 95 142 170 185 136 134 234 122 93 91 182
320 322 325 329 331 185 159 159 159 158 159 112 66 156 170 177 199 185 97 156 130 148 225 196 57 127 127 104 83 102 93 3 2 360 43 80 77 58 71 63 107 131 195 165 155 184 166
324 324 333 340 343 157 157 156 162 159 178 74 125 135 57 118 144 134 220 204 152 122 136 171 137 136 113 136 163 175 132 181 205 15 46 22 82 74 26 23 246 284 267 238 203 202 252
325 330 337 339 3 143 154 158 163 172 175 84 102 78 105 134 127 131 193 177 176 129 26 116 149 103 87 148 123 103 87 125 130 131 82 64 110 53 317 336 326 346 248 222 256 209 195
327 330 333 335 332 158 158 164 171 180 178 66 114 116 102 137 139 182 153 145 147 147 133 39 77 100 150 110 109 55 46 65 70 38 65 112 90 84 210 11 26 250 299 238 221 255 214
328 331 340 354 142 162 158 170 184 186 165 47 61 77 109 103 114 96 105 113 89 60 68 74 29 24 130 61 64 44 357 26 36 29 21 71 115 79 105 172 284 318 16 90 63 284 199
328 330 336 348 344 167 162 173 185 189 174 47 41 35 90 122 359 334 100 116 130 108 40 49 38 88 67 86 89 141 189 199 217 70 37 58 68 106 108 112 239 255 341 107 93 309 329
325 326 330 333 189 165 166 177 183 190 201 36 44 26 73 101 354 8 117 151 113 94 103 128 155 77 44 83 96 152 225 180 162 176 168 74 32 141 159 247 287 264 308 190 112 262 332
328 317 308 290 164 169 167 168 176 187 196 145 44 17 78 96 22 6 11 99 75 89 135 188 82 356 55 90 137 193 157 222 113 174 176 164 142 181 114 160 278 7 5 163 266 290 303
333 325 282 231 206 172 176 173 175 182 184 183 90 81 75 75 127 86 64 51 42 80 122 32 134 109 161 100 123 114 130 73 156 219 53 198 179 181 181 216 217 301 134 147 262 291 316